TCX48UY LGZA-EGGD

Flight info

Callsign TCX48UY
Flight time N/A
Altitude 32000
Route KFN UM601 RUTOM DCT ESODU DCT ABESI/N0456F340 DCT UTAVO DCT HOC DCT LUL DCT RLP DCT ROTSI DCT KOTUN DCT NINAL DCT KESAX DCT KUNAV T421 ICTAM L179 SAWPE
Aircraft A321/M-SDE3FGHIRWY/LB1

Departure

Time 2026-04-22 16:21
Airport Zakynthos International Airport Dionysios Solomos (LGZA)

Arrival

Time N/A
Airport Bristol Airport (EGGD)
Time Latitude Longitude Altitude Speed Heading
2026-04-22 15:44 37.75448 20.88504 21 ft 0 kts 73°
2026-04-22 16:12 37.75447 20.88500 20 ft 3 kts 74°
2026-04-22 16:13 37.75443 20.88481 23 ft 4 kts 75°
2026-04-22 16:13 37.75436 20.88453 23 ft 1 kts 72°
2026-04-22 16:13 37.75436 20.88452 23 ft 0 kts 72°
2026-04-22 16:14 37.75435 20.88447 23 ft 3 kts 60°
2026-04-22 16:14 37.75421 20.88431 24 ft 3 kts 359°
2026-04-22 16:14 37.75404 20.88437 24 ft 3 kts 345°
2026-04-22 16:14 37.75396 20.88439 22 ft 0 kts 338°
2026-04-22 16:15 37.75430 20.88422 20 ft 6 kts 338°
2026-04-22 16:16 37.75462 20.88397 21 ft 6 kts 309°
2026-04-22 16:16 37.75476 20.88352 22 ft 4 kts 286°
2026-04-22 16:16 37.75482 20.88324 21 ft 3 kts 286°
2026-04-22 16:16 37.75488 20.88299 23 ft 3 kts 286°
2026-04-22 16:17 37.75497 20.88281 21 ft 3 kts 316°
2026-04-22 16:17 37.75525 20.88262 21 ft 6 kts 338°
2026-04-22 16:17 37.75565 20.88248 23 ft 8 kts 345°
2026-04-22 16:17 37.75634 20.88224 22 ft 10 kts 345°
2026-04-22 16:18 37.75688 20.88205 23 ft 7 kts 343°
2026-04-22 16:18 37.75728 20.88190 23 ft 7 kts 343°
2026-04-22 16:18 37.75792 20.88166 23 ft 10 kts 343°
2026-04-22 16:18 37.75857 20.88142 22 ft 9 kts 343°
2026-04-22 16:19 37.75914 20.88120 22 ft 8 kts 343°
2026-04-22 16:19 37.75966 20.88100 21 ft 7 kts 343°
2026-04-22 16:19 37.76004 20.88077 20 ft 5 kts 323°
2026-04-22 16:19 37.76022 20.88048 20 ft 3 kts 309°
2026-04-22 16:20 37.76042 20.88056 20 ft 3 kts 51°
2026-04-22 16:20 37.76037 20.88075 20 ft 1 kts 149°
2026-04-22 16:20 37.76029 20.88077 23 ft 1 kts 162°
2026-04-22 16:20 37.76017 20.88082 20 ft 15 kts 162°
2026-04-22 16:21 37.75630 20.88228 22 ft 98 kts 164°
2026-04-22 16:21 37.74760 20.88550 23 ft 162 kts 163°
2026-04-22 16:21 37.73595 20.88992 537 ft 174 kts 162°
2026-04-22 16:21 37.72432 20.89447 1381 ft 173 kts 165°
2026-04-22 16:22 37.70014 20.90384 1937 ft 199 kts 165°
2026-04-22 16:22 37.68617 20.90921 2107 ft 217 kts 164°
2026-04-22 16:22 37.67142 20.91487 2530 ft 224 kts 167°
2026-04-22 16:23 37.64645 20.91067 3334 ft 224 kts 217°
2026-04-22 16:23 37.63738 20.89900 3751 ft 221 kts 243°
2026-04-22 16:23 37.63460 20.89173 3962 ft 219 kts 255°
2026-04-22 16:24 37.63314 20.87308 4501 ft 216 kts 282°
2026-04-22 16:24 37.65033 20.84343 5384 ft 227 kts 328°
2026-04-22 16:24 37.66453 20.83272 5528 ft 248 kts 328°
2026-04-22 16:25 37.67997 20.82155 5904 ft 260 kts 329°
2026-04-22 16:25 37.71162 20.79895 7079 ft 263 kts 328°
2026-04-22 16:25 37.72757 20.78747 7720 ft 264 kts 327°
2026-04-22 16:26 37.74355 20.77588 8346 ft 265 kts 327°
2026-04-22 16:26 37.75958 20.76420 8968 ft 266 kts 326°
2026-04-22 16:26 37.77563 20.75249 9575 ft 267 kts 326°
2026-04-22 16:26 37.79161 20.74083 10124 ft 270 kts 326°
2026-04-22 16:27 37.80838 20.72851 10244 ft 287 kts 326°
2026-04-22 16:27 37.82623 20.71537 10373 ft 304 kts 326°
2026-04-22 16:27 37.84507 20.70153 10493 ft 320 kts 326°
2026-04-22 16:27 37.86478 20.68706 10645 ft 333 kts 326°
2026-04-22 16:28 37.88502 20.67222 11049 ft 338 kts 326°
2026-04-22 16:28 37.90383 20.65454 11527 ft 336 kts 311°
2026-04-22 16:28 37.91686 20.63068 12003 ft 335 kts 295°
2026-04-22 16:28 37.92706 20.60398 12522 ft 337 kts 295°
2026-04-22 16:29 37.93720 20.57707 13036 ft 338 kts 295°
2026-04-22 16:29 37.94732 20.55006 13536 ft 340 kts 295°
2026-04-22 16:29 37.95756 20.52283 13976 ft 343 kts 295°
2026-04-22 16:29 37.96784 20.49552 14392 ft 345 kts 295°
2026-04-22 16:30 37.97471 20.47727 14676 ft 346 kts 295°
2026-04-22 16:30 37.98848 20.44068 15276 ft 347 kts 295°
2026-04-22 16:30 37.99893 20.41299 15708 ft 348 kts 294°
2026-04-22 16:30 38.00940 20.38521 16113 ft 350 kts 294°
2026-04-22 16:31 38.01992 20.35726 16509 ft 352 kts 294°
2026-04-22 16:31 38.03049 20.32910 16885 ft 353 kts 294°
2026-04-22 16:31 38.04107 20.30089 17244 ft 355 kts 294°
2026-04-22 16:31 38.05169 20.27249 17594 ft 357 kts 294°
2026-04-22 16:32 38.06223 20.24420 17931 ft 358 kts 294°
2026-04-22 16:32 38.07295 20.21548 18261 ft 360 kts 294°
2026-04-22 16:32 38.08373 20.18670 18549 ft 362 kts 294°
2026-04-22 16:32 38.09458 20.15771 18848 ft 363 kts 294°
2026-04-22 16:33 38.10546 20.12860 19136 ft 364 kts 294°
2026-04-22 16:33 38.11633 20.09946 19451 ft 365 kts 294°
2026-04-22 16:33 38.12703 20.07064 19753 ft 366 kts 294°
2026-04-22 16:33 38.13793 20.04126 20055 ft 367 kts 294°
2026-04-22 16:34 38.14882 20.01188 20368 ft 368 kts 294°
2026-04-22 16:34 38.15978 19.98230 20673 ft 369 kts 294°
2026-04-22 16:34 38.17078 19.95268 20981 ft 371 kts 294°
2026-04-22 16:34 38.18181 19.92292 21286 ft 372 kts 294°
2026-04-22 16:35 38.19275 19.89340 21602 ft 374 kts 294°
2026-04-22 16:35 38.20388 19.86336 21904 ft 375 kts 294°
2026-04-22 16:35 38.21504 19.83319 22205 ft 377 kts 294°
2026-04-22 16:35 38.22621 19.80298 22534 ft 378 kts 294°
2026-04-22 16:36 38.23742 19.77258 22838 ft 380 kts 294°
2026-04-22 16:36 38.24867 19.74204 23142 ft 381 kts 294°
2026-04-22 16:36 38.25995 19.71145 23440 ft 382 kts 294°
2026-04-22 16:36 38.27113 19.68105 23695 ft 384 kts 294°
2026-04-22 16:37 38.28248 19.65011 23942 ft 385 kts 295°
2026-04-22 16:37 38.29385 19.61910 24181 ft 386 kts 295°
2026-04-22 16:37 38.30522 19.58801 24420 ft 388 kts 295°
2026-04-22 16:37 38.31659 19.55691 24659 ft 389 kts 295°
2026-04-22 16:38 38.32805 19.52555 24899 ft 390 kts 295°
2026-04-22 16:38 38.33953 19.49414 25141 ft 391 kts 295°
2026-04-22 16:38 38.35091 19.46296 25371 ft 392 kts 295°
2026-04-22 16:38 38.36243 19.43129 25586 ft 394 kts 295°
2026-04-22 16:39 38.37397 19.39956 25812 ft 395 kts 295°
2026-04-22 16:39 38.38553 19.36772 26043 ft 396 kts 295°
2026-04-22 16:39 38.39716 19.33565 26266 ft 397 kts 295°
2026-04-22 16:39 38.40862 19.30401 26524 ft 398 kts 295°
2026-04-22 16:40 38.42022 19.27197 26812 ft 398 kts 295°
2026-04-22 16:40 38.43184 19.23991 27054 ft 398 kts 295°
2026-04-22 16:40 38.45520 19.17546 27457 ft 400 kts 295°
2026-04-22 16:41 38.46685 19.14320 27643 ft 401 kts 295°
2026-04-22 16:41 38.47854 19.11076 27820 ft 402 kts 295°
2026-04-22 16:41 38.49005 19.07875 27994 ft 402 kts 295°
2026-04-22 16:41 38.50177 19.04612 28156 ft 403 kts 295°
2026-04-22 16:42 38.51490 19.01459 28376 ft 402 kts 303°
2026-04-22 16:42 38.53212 18.98633 28595 ft 403 kts 311°
2026-04-22 16:42 38.55289 18.96199 28825 ft 404 kts 317°
2026-04-22 16:42 38.57404 18.93902 29036 ft 403 kts 317°
2026-04-22 16:43 38.59537 18.91565 29264 ft 402 kts 317°
2026-04-22 16:43 38.61660 18.89231 29487 ft 401 kts 316°
2026-04-22 16:43 38.63781 18.86891 29711 ft 401 kts 316°
2026-04-22 16:43 38.65887 18.84561 29930 ft 400 kts 316°
2026-04-22 16:44 38.67965 18.82259 30131 ft 399 kts 316°
2026-04-22 16:44 38.70066 18.79933 30308 ft 398 kts 316°
2026-04-22 16:44 38.72163 18.77612 30503 ft 397 kts 316°
2026-04-22 16:44 38.74259 18.75293 30714 ft 396 kts 316°
2026-04-22 16:45 38.76349 18.72982 30902 ft 395 kts 316°
2026-04-22 16:45 38.78427 18.70679 31084 ft 395 kts 316°
2026-04-22 16:45 38.80505 18.68378 31260 ft 394 kts 316°
2026-04-22 16:45 38.82553 18.66109 31436 ft 394 kts 316°
2026-04-22 16:46 38.84622 18.63812 31606 ft 393 kts 316°
2026-04-22 16:46 38.86691 18.61510 31779 ft 393 kts 316°
2026-04-22 16:46 38.88754 18.59209 31946 ft 392 kts 316°
2026-04-22 16:46 38.90815 18.56912 32118 ft 392 kts 316°
2026-04-22 16:47 38.92877 18.54620 32293 ft 391 kts 316°
2026-04-22 16:47 38.94935 18.52332 32464 ft 391 kts 316°
2026-04-22 16:47 38.96302 18.50811 32575 ft 391 kts 316°
2026-04-22 16:47 38.99025 18.47768 32839 ft 390 kts 315°
2026-04-22 16:48 39.01069 18.45479 32972 ft 388 kts 315°
2026-04-22 16:48 39.05154 18.40900 33007 ft 391 kts 315°
2026-04-22 16:49 39.09274 18.36280 33011 ft 393 kts 315°
2026-04-22 16:49 39.13370 18.31679 33009 ft 393 kts 315°
2026-04-22 16:50 39.17498 18.27042 33011 ft 393 kts 315°
2026-04-22 16:50 39.21619 18.22396 33009 ft 393 kts 315°
2026-04-22 16:51 39.25722 18.17772 33007 ft 393 kts 315°
2026-04-22 16:51 39.29839 18.13123 33017 ft 393 kts 314°
2026-04-22 16:52 39.33963 18.08455 33022 ft 393 kts 314°
2026-04-22 16:52 39.38058 18.03814 33013 ft 393 kts 314°
2026-04-22 16:53 39.42174 17.99135 33019 ft 393 kts 314°
2026-04-22 16:53 39.46271 17.94476 33025 ft 393 kts 314°
2026-04-22 16:54 39.50384 17.89786 33022 ft 393 kts 314°
2026-04-22 16:54 39.54466 17.85130 33027 ft 391 kts 314°
2026-04-22 16:55 39.58548 17.80463 33027 ft 391 kts 314°
2026-04-22 16:55 39.62637 17.75782 33025 ft 391 kts 314°
2026-04-22 16:56 39.66713 17.71112 33029 ft 390 kts 315°
2026-04-22 16:56 39.70781 17.66443 33031 ft 390 kts 315°
2026-04-22 16:57 39.74829 17.61791 33027 ft 390 kts 315°
2026-04-22 16:57 39.78899 17.57101 33054 ft 390 kts 315°
2026-04-22 16:58 39.82258 17.53226 33035 ft 388 kts 315°
2026-04-22 16:58 39.86985 17.47758 33035 ft 388 kts 315°
2026-04-22 16:59 39.90993 17.43111 33037 ft 388 kts 315°
2026-04-22 16:59 39.95034 17.38424 33038 ft 388 kts 315°
2026-04-22 17:00 39.99064 17.33738 33040 ft 387 kts 315°
2026-04-22 17:00 40.05073 17.26744 33060 ft 386 kts 315°
2026-04-22 17:01 40.09062 17.22091 33040 ft 383 kts 315°
2026-04-22 17:01 40.13047 17.17435 33046 ft 383 kts 315°
2026-04-22 17:02 40.17020 17.12786 33043 ft 383 kts 315°
2026-04-22 17:02 40.20967 17.08163 33043 ft 383 kts 315°
2026-04-22 17:03 40.24937 17.03506 33041 ft 383 kts 315°
2026-04-22 17:03 40.28900 16.98834 33046 ft 383 kts 315°
2026-04-22 17:04 40.32863 16.94171 33046 ft 379 kts 314°
2026-04-22 17:04 40.36754 16.89575 33054 ft 379 kts 314°
2026-04-22 17:05 40.40671 16.84939 33076 ft 379 kts 314°
2026-04-22 17:05 40.43935 16.81074 33079 ft 379 kts 314°
2026-04-22 17:06 40.47851 16.76435 33080 ft 379 kts 314°
2026-04-22 17:06 40.51773 16.71781 33079 ft 379 kts 314°
2026-04-22 17:07 40.55664 16.67147 33111 ft 380 kts 314°
2026-04-22 17:07 40.59568 16.62503 33072 ft 376 kts 314°
2026-04-22 17:08 40.63447 16.57871 33069 ft 375 kts 314°
2026-04-22 17:08 40.67295 16.53281 33066 ft 375 kts 314°
2026-04-22 17:09 40.71166 16.48648 33071 ft 376 kts 314°
2026-04-22 17:09 40.75038 16.43997 33069 ft 375 kts 314°
2026-04-22 17:10 40.78895 16.39349 33081 ft 375 kts 314°
2026-04-22 17:10 40.82737 16.34727 33066 ft 373 kts 314°
2026-04-22 17:11 40.86552 16.30138 33083 ft 372 kts 314°